Weather Roundup
Issued by NWS Springfield, MO

Home | Current Version | Previous Version | Text Only | Print | Product List | Glossary On
Versions: 1 2 3 4 5 6 7 8 9 10 11 12 13 14 15 16 17 18 19 20 21 22 23 24 25 26 27 28 29 30 31 32 33 34 35 36 37 38 39 40 41 42 43 44 45 46 47 48 49 50
000
NZUS99 KSGF 011807
HRRSGF

HOURLY WEATHER
NATIONAL WEATHER SERVICE SPRINGFIELD MO
100 PM CDT SUN MAY 01 2016

......SGF CWA......

CITY           SKY/WX    TMP DP  RH WIND       PRES   REMARKS
SPRINGFIELD    SUNNY     65  43  44 W13G20    30.01R
6HR MIN TEMP:  46; 6HR MAX TEMP:  65;

JOPLIN         MOSUNNY   61  46  57 W13G25    30.05R
6HR MIN TEMP:  45; 6HR MAX TEMP:  62;

WEST PLAINS    SUNNY     69  49  48 SW8       29.97F
6HR MIN TEMP:  54; 6HR MAX TEMP:  70;

ROLLA          MOSUNNY   66  50  56 W9        29.94F
6HR MIN TEMP:  53; 6HR MAX TEMP:  66;

OSAGE BEACH    SUNNY     66  43  42 SW12      29.97S
BRANSON        SUNNY     66  45  45 W15       30.02R

......SURROUNDING SGF CWA......

CITY           SKY/WX    TMP DP  RH WIND       PRES   REMARKS
CHANUTE        PTSUNNY   60  43  53 W13       30.05S
PARSONS        MOSUNNY   61  46  57 NW10G20   30.07S
COFFEYVILLE    MOSUNNY   61  45  55 NW9       30.07S
EMPORIA        CLOUDY    54  46  74 NW12      30.05F
GROVE OK       MOSUNNY   61  46  59 W8        30.07S
ROGERS AR      SUNNY     63  47  55 W13       30.04S
SILOAM SPRINGS SUNNY     63  45  51 NW8G16    30.06S
HARRISON AR    SUNNY     69  47  45 VRB6      30.00S
NEAR YELLVILLE SUNNY    N/A N/A N/A S3        29.96S

......KANSAS AND MISSOURI......

CITY           SKY/WX    TMP DP  RH WIND       PRES   REMARKS
KANSAS CTY INT PTSUNNY   60  48  64 W12       30.00R
DOWNTOWN KC    CLOUDY    60  46  59 W9        29.99S
COLUMBIA       MOSUNNY   66  49  54 W15       29.95F
SEDALIA        PTSUNNY   64  45  49 W10G22    29.99R
ST JOSEPH      CLOUDY    55  49  80 N10       30.01S
ST LOUIS       PTSUNNY   66  58  75 N6        29.95S
SPIRIT OF STL  PTSUNNY   67  59  75 CALM      29.94F
KIRKSVILLE     CLOUDY    52  49  89 N5        29.97S
WICHITA        CLOUDY    56  43  61 NW18      30.10R
TOPEKA         CLOUDY    59  47  64 W15G21    30.03R
OLATHE         CLOUDY    56  43  61 W12       30.01R

......TENNESSEE......

CITY           SKY/WX    TMP DP  RH WIND       PRES   REMARKS
MEMPHIS        PTSUNNY   83  70  64 S8        29.93F
NASHVILLE      PTSUNNY   79  63  57 S13G18    29.96F

......ARKANSAS.......

CITY           SKY/WX    TMP DP  RH WIND       PRES   REMARKS
FAYETTEVILLE   SUNNY     65  48  54 W12       30.04S
FT SMITH       SUNNY     70  45  40 W12       30.01F
LITTLE ROCK    MOSUNNY   78  61  55 NW10      29.97S

......OKLAHOMA.......

CITY           SKY/WX    TMP DP  RH WIND       PRES   REMARKS
TULSA          PTSUNNY   62  45  53 NW5       30.05F
PONCA CITY     PTSUNNY   57  44  62 NW16G24   30.09F
MCALESTER      MOSUNNY   66  45  46 NW12      30.05R
OKLAHOMA CITY  MOSUNNY   61  43  51 N15       30.09F

......IOWA............

CITY           SKY/WX    TMP DP  RH WIND       PRES   REMARKS
DES MOINES     LGT RAIN  47  44  90 NE9       30.05R FOG

......ILLINOIS........

CITY           SKY/WX    TMP DP  RH WIND       PRES   REMARKS
QUINCY         CLOUDY    54  51  90 N6        29.96F FOG
CHICAGO        CLOUDY    47  44  90 NE14      29.99F




USA.gov is the U.S. government's official web portal to all federal, state and local government web resources and services.